Hourly Data Report for December 07, 2019

All times are specified in Local Standard Time (LST). Add 1 hour to adjust for Daylight Saving Time where and when it is observed.

SATURNA ISLAND CS
BRITISH COLUMBIA
Current Station Operator: ECCC - MSC

48°47'02.067" N
123°02'41.082" W
24.40 m
1017101
71473
WEZ

Download Data

Hourly Data (December 2019)
Hourly Data Report for December 7, 2019
TIME Temp Definition
°C
Dew Point Definition
°C
Rel Hum Definition
%
Wind Dir Definition
10's deg

Wind Spd Definition
km/h
Visibility Definition
km
Stn Press Definition
kPa
Hmdx Definition


Wind Chill Definition


Weather Definition


00:00 7.5 7.0 97 35 10   100.48     LegendNANA
01:00 7.9 7.3 96 13 11   100.43     LegendNANA
02:00 7.8 7.1 95 11 18   100.39     LegendNANA
03:00 7.8 7.2 95 10 13   100.35     LegendNANA
04:00 7.9 7.2 96 11 13   100.29     LegendNANA
05:00 8.7 7.1 90 14 14   100.25     LegendNANA
06:00 8.5 7.4 93 19 11   100.23     LegendNANA
07:00 8.6 7.4 93 23 8   100.26     LegendNANA
08:00 8.8 8.0 95 17 14   100.26     LegendNANA
09:00 8.9 8.1 95 19 12   100.30     LegendNANA
10:00 8.9 7.9 94 18 29   100.31     LegendNANA
11:00 8.8 7.9 94 18 30   100.33     LegendNANA
12:00 8.9 7.9 94 19 27   100.33     LegendNANA
13:00 8.7 8.0 95 19 22   100.33     LegendNANA
14:00 8.8 8.1 95 19 11   100.34     LegendNANA
15:00 8.8 8.0 95 15 4   100.37     LegendNANA
16:00 8.6 7.9 95 11 7   100.41     LegendNANA
17:00 8.5 7.9 96 2 3   100.46     LegendNANA
18:00 8.4 7.9 97 8 6   100.50     LegendNANA
19:00 8.2 7.8 97 2 6   100.55     LegendNANA
20:00 8.2 7.7 97 2 3   100.61     LegendNANA
21:00 8.2 7.8 97 33 4   100.69     LegendNANA
22:00 8.2 7.8 98 31 1   100.73     LegendNANA
23:00 8.2 7.9 98 0 1   100.78     LegendNANA

Notes on Data Quality.

Legend

  • E = Estimated
  • M = Missing
  • NA = Not Available
Date modified: